Погода в Курчатове

Казахстан     50°45′17″N   78°32′41″E
темп.,
°C
ветер,
м/с
пор.,
м/с
влажн.,
%
обл.,
%
осадки,
мм/ч
давл.,
гПа
погр.,
м
2 марта, вт
вт200:00−2з3595100 0.3 101585
03:00−4зсз61182100 0.6 1016293
06:00−9зсз3586100 0.6 101892
09:00−9зсз2490100 0.0 1018123
12:00−7сз1183100 0.0 1018233
15:00−5ссв2186100 0.0 1016224
18:00−6ссв2396100 0.5 1015124
21:00−7ссз3596100 1.4 1016163
3 марта, ср
ср300:00−9зсз229599 1.8 101721
03:00−9зюз369594 0.2 1019143
06:00−11з6128595 0.3 1021314
09:00−13зюз5108685 0.0 1023473
12:00−11з588181 0.0 1024626
15:00−9зюз467984 0.0 1024668
18:00−11юз348356 0.0 102444
21:00−12ююз45820 0.0 102658
4 марта, чт
чт400:00−12ю457925 0.0 102652
03:00−11ю457798 0.0 102565
06:00−10ю458299 0.0 102567
09:00−9ю4684100 0.0 1024111
12:00−3ю6980100 0.0 1023359
15:00−1ююз61078100 0.0 1021430
18:00−4ю6108096 0.0 1021158
21:00−8ю6117724 0.0 1019188
5 марта, пт
пт500:00−6ю6127348 0.0 1019270
03:00−6ю61081100 0.0 1016252
06:00−5ю2397100 1.0 101678
09:00−3з51096100 2.0 1017541
12:00−2зсз9138282 2.3 1022792
15:00−3з711790 0.0 1025803
18:00−5юз512780 0.0 1028268
21:00−8ююз59770 0.0 1029129
6 марта, сб
сб600:00−8ююз6117430 0.0 1029180
03:00−9ююз597124 0.0 1027142
06:00−9ююз597039 0.0 1026131
09:00−8ююз5107359 0.0 1026185
12:00−4ююз6106931 0.0 1024428
15:00−1ююз510730 0.0 1022525
18:00−4ююз34770 0.0 102324
21:00−7юз44760 0.0 102434